Weather History for Salisbury, MD

Change the Weather History Date:

Monday, September 16, 2013

  Actual Average Record
Temperature  
Mean Temperature 70 °F 68 °F  
Max Temperature 81 °F 79 °F 94 °F (1998)
Min Temperature 59 °F 58 °F 43 °F (2001)
Degree Days  
Heating Degree Days 0 1  
Month to date heating degree days 5 8  
Since 1 July heating degree days 5 10  
Cooling Degree Days 5 5  
Month to date cooling degree days 159 101  
Year to date cooling degree days 1522 1084  
Growing Degree Days 19 (Base 50)    
Moisture  
Dew Point 60 °F    
Average Humidity 74    
Maximum Humidity 90    
Minimum Humidity 58    
Precipitation  
Precipitation T in 0.13 in 4.38 in (1999)
Month to date precipitation 0.32 2.10  
Year to date precipitation 40.00 33.17  
Snow  
Snow 0.00 in 0.00 in 0.00 in (2002)
Month to date snowfall 0.0 0.0  
Since 1 July snowfall 0.0 0.0  
Snow Depth 0.00 in    
Sea Level Pressure  
Sea Level Pressure 30.11 in    
Wind  
Wind Speed 7 mph (WNW)    
Max Wind Speed 16 mph    
Max Gust Speed 21 mph    
Visibility 10 miles    
Events      
T = Trace of Precipitation, MM = Missing Value Source: NWS Daily Summary

Daily Weather History Graph

Daily Weather History Graph

Search for Another Location

Airport:

Trip Planner

Search our weather history database for the weather conditions in past years. The results will help you decide how hot, cold, wet, or windy it might be!

Date:

Astronomy

Sep. 16, 2013 Rise Set
Actual Time 6:44 AM EDT 7:08 PM EDT
Civil Twilight 6:18 AM EDT 7:34 PM EDT
Nautical Twilight 5:47 AM EDT 8:05 PM EDT
Astronomical Twilight 5:15 AM EDT 8:37 PM EDT
Moon 5:14 PM EDT (9/16) 3:30 AM EDT (9/16)
Length of Visible Light 13h 16m
Length of Day
12h 23m
Waxing Gibbous, 90% of the Moon is Illuminated
Sep 16
Waxing Gibbous
Sep 19
Full
Sep 26
Last Quarter
Oct 4
New
Oct 11
First Quarter

Hourly Weather History & Observations

Time (EDT) Temp. Dew Point Humidity Pressure Visibility Wind Dir Wind Speed Gust Speed Precip Events Conditions
12:54 AM 62.1 °F 55.9 °F 80% 30.14 in 10.0 mi South 4.6 mph - N/A   Clear
1:54 AM 64.9 °F 57.9 °F 78% 30.13 in 10.0 mi South 5.8 mph - N/A   Mostly Cloudy
2:54 AM 66.0 °F 59.0 °F 78% 30.12 in 10.0 mi South 6.9 mph - N/A   Overcast
3:54 AM 66.9 °F 60.1 °F 79% 30.09 in 10.0 mi SSW 6.9 mph - N/A   Overcast
4:54 AM 66.9 °F 61.0 °F 81% 30.08 in 10.0 mi SSW 6.9 mph - N/A   Overcast
5:54 AM 66.0 °F 62.1 °F 87% 30.08 in 10.0 mi SSW 5.8 mph - N/A   Partly Cloudy
6:54 AM 66.0 °F 62.1 °F 87% 30.09 in 10.0 mi SSW 4.6 mph - N/A   Clear
7:54 AM 68.0 °F 63.0 °F 84% 30.09 in 10.0 mi SSW 4.6 mph - N/A   Clear
8:54 AM 73.0 °F 66.0 °F 79% 30.09 in 10.0 mi SSW 8.1 mph - N/A   Clear
9:54 AM 75.9 °F 66.0 °F 71% 30.08 in 10.0 mi SW 8.1 mph - N/A   Partly Cloudy
10:54 AM 77.0 °F 64.0 °F 64% 30.08 in 10.0 mi West 11.5 mph - N/A   Scattered Clouds
11:54 AM 78.1 °F 63.0 °F 60% 30.08 in 10.0 mi NW 6.9 mph - N/A   Partly Cloudy
12:54 PM 77.0 °F 63.0 °F 62% 30.08 in 10.0 mi WNW 8.1 mph - N/A   Mostly Cloudy
1:54 PM 75.0 °F 64.0 °F 69% 30.08 in 10.0 mi North 8.1 mph - 0.00 in   Clear
2:52 PM 71.6 °F 62.6 °F 73% 30.08 in 10.0 mi North 8.1 mph - N/A   Overcast
2:54 PM 72.0 °F 62.1 °F 71% 30.09 in 10.0 mi North 8.1 mph - N/A   Overcast
3:45 PM 69.8 °F 60.8 °F 73% 30.07 in 10.0 mi North 8.1 mph - N/A   Overcast
3:54 PM 69.1 °F 59.0 °F 70% 30.08 in 10.0 mi NNE 9.2 mph - N/A   Overcast
4:16 PM 69.8 °F 59.0 °F 68% 30.08 in 10.0 mi North 8.1 mph - N/A   Overcast
4:24 PM 69.8 °F 59.0 °F 68% 30.09 in 10.0 mi North 5.8 mph - N/A   Overcast
4:54 PM 69.1 °F 59.0 °F 70% 30.10 in 10.0 mi North 8.1 mph - N/A   Overcast
5:54 PM 70.0 °F 59.0 °F 68% 30.11 in 10.0 mi North 6.9 mph - N/A   Overcast
6:54 PM 69.1 °F 60.1 °F 73% 30.12 in 10.0 mi North 3.5 mph - N/A   Overcast
7:54 PM 66.0 °F 59.0 °F 78% 30.14 in 10.0 mi Calm Calm - N/A   Mostly Cloudy
8:54 PM 64.0 °F 57.9 °F 80% 30.17 in 10.0 mi NW 3.5 mph - N/A   Partly Cloudy
9:54 PM 61.0 °F 57.0 °F 87% 30.18 in 10.0 mi Calm Calm - N/A   Clear
10:54 PM 60.1 °F 55.9 °F 86% 30.20 in 10.0 mi NW 3.5 mph - N/A   Clear
11:54 PM 63.0 °F 55.0 °F 75% 30.21 in 10.0 mi North 12.7 mph 19.6 mph N/A   Clear